AKST,Max TemperatureF,Mean TemperatureF,Min TemperatureF,Max Dew PointF,MeanDew PointF,Min DewpointF,Max Humidity, Mean Humidity, Min Humidity, Max Sea Level PressureIn, Mean Sea Level PressureIn, Min Sea Level PressureIn, Max VisibilityMiles, Mean VisibilityMiles, Min VisibilityMiles, Max Wind SpeedMPH, Mean Wind SpeedMPH, Max Gust SpeedMPH,PrecipitationIn, CloudCover, Events, WindDirDegrees
2012-12-1,39,37,35,32,29,24,87,73,53,30.24,30.20,30.14,10,10,7,24,17,38,0.00,6,Rain,337
2012-12-2,39,36,33,32,29,24,87,76,67,30.22,30.14,30.10,10,9,2,28,20,46,0.03,8,Rain-Snow,337
2012-12-3,34,32,30,25,22,20,72,66,60,30.15,30.13,30.10,10,10,10,24,18,34,0.00,8,,337
2012-12-4,30,29,28,22,21,19,72,69,64,30.11,29.99,29.87,10,10,10,18,9,22,0.00,8,,1
2012-12-5,30,28,26,23,20,15,86,74,58,30.02,29.93,29.87,10,7,2,21,11,24,0.00,8,Snow,338
2012-12-6,28,27,26,25,21,17,86,75,63,30.03,29.96,29.84,10,9,2,12,8,20,0.00,8,Snow,271
2012-12-7,34,30,26,31,25,19,92,80,69,29.81,29.42,29.05,10,6,2,14,9,21,0.09,8,Rain-Snow,49
2012-12-8,42,38,33,37,34,30,93,84,70,29.02,28.63,28.34,10,6,2,26,13,34,0.71,8,Rain-Snow,111
2012-12-9,41,37,33,32,29,26,87,76,67,29.75,29.38,28.83,10,6,2,25,16,37,0.02,8,Rain-Snow,235
2012-12-10,48,38,33,38,27,20,82,68,52,30.22,30.03,29.79,10,10,5,18,12,26,0.00,7,Rain-Snow,227
2012-12-11,55,50,46,45,41,36,80,71,53,29.91,29.72,29.56,10,10,6,39,15,54,0.21,6,Rain,199
2012-12-12,46,44,43,35,32,29,68,62,58,29.83,29.75,29.62,10,10,7,33,23,45,0.03,5,Rain,229
2012-12-13,43,40,37,34,32,28,82,74,60,29.77,29.57,29.46,10,10,10,18,6,24,0.00,6,Rain,210
2012-12-14,39,36,32,32,28,23,93,75,56,29.78,29.65,29.47,10,6,0,32,16,41,0.05,8,Rain-Snow,260
2012-12-15,33,30,28,28,26,21,93,82,64,29.98,29.86,29.77,10,7,2,16,6,20,0.01,7,Rain-Snow,283
2012-12-16,37,34,30,28,24,22,79,66,57,30.07,30.00,29.85,10,10,10,15,9,24,0.00,4,Rain-Snow,212
2012-12-17,44,38,33,38,31,20,87,75,57,29.81,29.38,28.96,10,8,2,45,15,63,0.20,7,Rain,241
2012-12-18,36,32,28,30,24,17,93,75,52,30.44,30.13,29.73,10,5,0,44,27,54,0.02,8,Fog-Rain-Snow,312
2012-12-19,35,32,30,28,23,18,93,68,54,30.61,30.54,30.42,10,8,0,25,14,31,0.00,6,Fog-Rain-Snow,298
2012-12-20,42,38,33,36,32,22,92,82,61,30.45,30.18,29.93,10,8,3,18,6,25,0.20,8,Rain-Snow,171
2012-12-21,39,38,37,36,35,30,89,85,68,30.00,29.82,29.74,10,7,2,29,17,34,0.40,8,Rain,152
2012-12-22,39,38,37,30,26,23,70,64,57,30.04,30.00,29.90,10,10,10,37,22,43,0.00,6,,334
2012-12-23,36,32,28,28,25,20,93,77,60,29.86,29.71,29.57,10,6,1,36,25,54,0.01,8,Rain-Snow,340
2012-12-24,35,31,28,31,26,21,93,80,64,29.55,29.35,29.15,10,6,2,23,13,30,0.02,8,Rain-Snow,333
2012-12-25,39,37,35,34,31,29,89,82,67,29.19,29.06,28.82,10,10,5,25,12,37,0.14,8,Rain-Snow,96
2012-12-26,36,34,33,34,31,27,93,87,75,28.97,28.76,28.67,10,2,1,38,24,52,0.62,8,Rain-Snow,336
2012-12-27,39,30,27,30,26,20,93,79,64,29.21,29.02,28.90,10,7,2,23,11,30,0.01,6,Rain-Snow,194
2012-12-28,39,36,33,32,29,27,82,75,63,28.99,28.89,28.80,10,10,10,18,7,,0.00,5,Rain,232
2012-12-29,37,35,33,34,32,27,89,83,75,29.00,28.93,28.85,10,7,2,26,6,31,0.10,7,Rain-Snow,98
2012-12-30,37,35,33,33,30,26,92,83,67,29.08,28.90,28.82,10,8,2,14,8,23,0.04,8,Rain-Snow,310
2012-12-31,35,34,33,31,29,28,92,84,75,29.26,29.18,29.08,10,6,2,23,6,30,0.04,8,Rain-Snow,315